User: anonymous   Login
Location: Johnson City
(36.3130°N, 82.3540°W)
Time: 23:13:12
(UTC-05:00)
Language:

Tiangong 2 - Orbit

View from above orbital plane
View from above orbital plane
View from above satellite
View from above satellite

Ground track
Ground track

The orbit data is extracted from the following two-line orbital elements,

1 41765U 16057A   18320.74535628  .00002900  00000-0  39462-4 0  9995
2 41765  42.7825 152.9779 0008358 244.9812 218.5361 15.59997413123844
Epoch (UTC): 16 November 2018 17:53:18
Eccentricity: 0.0008358
inclination: 42.7825°
perigee height: 382 km
apogee height: 393 km
right ascension of ascending node: 152.9779°
argument of perigee: 244.9812°
revolutions per day: 15.59997413
mean anomaly at epoch: 218.5361°
orbit number at epoch: 12384

The dashed part of the orbit path shows where the satellite is in the earth's shadow,  

DLR